Погода в Ильинке

Россия / Республика Тыва     51°06′55″N   95°28′51″E
темп.,
°C
ветер,
м/с
пор.,
м/с
влажн.,
%
обл.,
%
осадки,
мм/ч
давл.,
гПа
погр.,
м
10 мая, пн
пн1001:00+6юз118699 0.8 101241
04:00+4сз1380100 0.1 1012251
07:00+2з2489100 0.9 1016476
10:00+4сз465493 0.1 10161633
13:00+9ссз6825100 0.2 10132875
16:00+9ссз462299 0.0 10133010
19:00+8ссв353241 0.0 10151690
22:00+2в11584 0.0 101910
11 мая, вт
вт1101:000вюв11700 0.0 102010
04:00−1вюв21781 0.0 102014
07:00+3в11600 0.0 1018250
10:00+11зсз12326 0.0 10141423
13:00+14сз2221100 0.0 10112555
16:00+14сз3320100 0.0 10092682
19:00+12ссз233017 0.0 1010144
22:00+5юв1145100 0.0 101210
12 мая, ср
ср1201:00+4юв22525 0.0 101317
04:00+2юв2257100 0.0 101320
07:00+6вюв1145100 0.0 1012136
10:00+12сз213194 0.0 1009932
13:00+15зсз3224100 0.0 10072538
16:00+14сз4424100 0.0 10062660
19:00+12с2343100 0.0 1008273
22:00+7юз1157100 0.0 101021
13 мая, чт
чт1301:00+4ююз1172100 0.0 101211
04:00+3ю1177100 0.0 101315
07:00+6зсз116753 0.0 1014427
10:00+10с354013 0.2 10122139
13:00+13с56218 0.3 10102721
16:00+14с45195 0.0 10102640
19:00+12ссв35240 0.0 10121157
22:00+5вюв22420 0.0 101625
14 мая, пт
пт1401:00+3юв22460 0.0 101724
04:00+2юв22491 0.0 101819
07:00+7юв12345 0.0 1016191
10:00+15юз1219100 0.0 10121722
13:00+16сз2417100 0.0 10093146
16:00+17юз441685 0.0 10073617
19:00+14зюз472155 0.0 1007866
22:00+7зюз1160100 0.0 101212